This is the latest recevied weather packets stored in our database for station/object KK7KHO. If no packets are shown the sender has not sent any weather packets the latest 10 day(s).
| Time | Temp. | Humidity | Pressure | Rain* | Wind** | Luminosity | Snow |
|---|---|---|---|---|---|---|---|
| 1777608845 | 13.89° C | 83% | 1015.6 hPa | 0 mm | - | 0 W/m² | - |
| 1777608541 | 14.44° C | 82% | 1015.7 hPa | 0 mm | - | 0 W/m² | - |
| 1777608239 | 14.44° C | 82% | 1015.6 hPa | 0 mm | - | 0 W/m² | - |
| 1777607937 | 14.44° C | 82% | 1015.5 hPa | 0 mm | - | 0 W/m² | - |
| 1777607632 | 15° C | 82% | 1015.5 hPa | 0 mm | - | 0 W/m² | - |
| 1777607329 | 15° C | 80% | 1015.4 hPa | 0 mm | - | 0 W/m² | - |
| 1777607025 | 15° C | 79% | 1015.2 hPa | 0 mm | - | 0 W/m² | - |
| 1777606721 | 15.56° C | 81% | 1015.4 hPa | 0 mm | - | 0 W/m² | - |
| 1777606416 | 15.56° C | 81% | 1015.4 hPa | 0 mm | - | 1 W/m² | - |
| 1777606111 | 16.11° C | 80% | 1015.2 hPa | 0 mm | - | 1 W/m² | - |
| 1777605808 | 16.11° C | 80% | 1015.3 hPa | 0 mm | - | 2 W/m² | - |
| 1777605507 | 16.11° C | 80% | 1015.1 hPa | 0 mm | - | 3 W/m² | - |
| 1777605203 | 16.11° C | 79% | 1014.9 hPa | 0 mm | - | 5 W/m² | - |
| 1777604899 | 16.67° C | 77% | 1015 hPa | 0 mm | - | 6 W/m² | - |
| 1777604595 | 16.67° C | 76% | 1015.2 hPa | 0 mm | - | 8 W/m² | - |
| 1777604292 | 17.22° C | 75% | 1015 hPa | 0 mm | - | 10 W/m² | - |
| 1777603987 | 17.22° C | 74% | 1015.2 hPa | 0 mm | - | 12 W/m² | - |
| 1777603684 | 17.78° C | 74% | 1015 hPa | 0 mm | - | 14 W/m² | - |
| 1777603381 | 17.78° C | 73% | 1015 hPa | 0 mm | - | 17 W/m² | - |
| 1777603076 | 17.78° C | 73% | 1015 hPa | 0 mm | - | 20 W/m² | - |
| 1777602776 | 18.33° C | 71% | 1015 hPa | 0 mm | - | 23 W/m² | - |
| 1777602472 | 18.89° C | 70% | 1015 hPa | 0 mm | - | 27 W/m² | - |
| 1777602169 | 18.89° C | 68% | 1015.1 hPa | 0 mm | - | 31 W/m² | - |
| 1777601869 | 18.89° C | 68% | 1015.1 hPa | 0 mm | - | 37 W/m² | - |
| 1777601564 | 20° C | 66% | 1015.2 hPa | 0 mm | - | 56 W/m² | - |
* Rain latest hour (hover to see other rain measurements)
** Current wind speed in m/s (hover to see current wind gust speed)